{"data":{"norad_id":47546,"intl_designator":"2021-008A","name":"COSMOS 2549","alt_names":[],"object_type":"PAYLOAD","status":"ACTIVE","operator":null,"country":"CIS","launch_date":"2021-02-02","launch_site_code":"PLMSC","launch_vehicle":null,"mission":null,"orbit_class":"UNKNOWN","rcs_meters":null,"size_class":null,"mass_kg":null,"dimensions":null,"purposes":[],"wikipedia_slug":null,"has_3d_model":false,"image_url":null,"decayed_at":null,"tle_current":{"epoch":"2026-09-20T23:02:34.666080Z","epoch_age_seconds":42591,"freshness":"FRESH","line1":"1 47546U 21008A   26263.96012345 -.00000056  00000+0  14176-4 0  9990","line2":"2 47546  67.1485 112.1463 0007405 266.1938  93.8300 13.97130185287219","mean_motion":13.97130185,"eccentricity":0.0007405,"inclination_deg":67.1485,"raan_deg":112.1463,"arg_perigee_deg":266.1938,"mean_anomaly_deg":93.83,"bstar":1.4176e-5,"rev_number":28721,"period_min":103.06841949736,"perigee_km":898.35757687873,"apogee_km":909.14205125036,"semimajor_km":7281.8868140645,"source":"CELESTRAK","updated_at":"2026-09-21T09:00:07.527936Z"}}}